Home > Weather > Grenchen > Past weeks

Flag for Switzerland Past Weather in Grenchen, Solothurn, Switzerland — Yesterday and Last 2 Weeks

Now
74 °F

Mild.


Feels Like: 76 °F
Forecast: 58 / 72 °F
Wind: 3 mph from Southwest

Location: Grenchen

Current Time: Jun 29, 2016 at 10:13:29 PM

Latest Report: Jun 29, 2016 at 9:00 PM


Visibility: N/A

Pressure: 29.89 "Hg

Humidity: 64%

Dew Point: 61 °F

Location of GrenchenLocation

Past Weather in Grenchen — Graph

°F

Grenchen Temperature Yesterday

Maximum temperature yesterday: 78 °F (at 6:00 PM)
Minimum temperature yesterday: 53 °F (at 6:00 AM)
Average temperature yesterday: 66 °F

High & Low Weather Summary for the Past Weeks

 TemperatureHumidityPressure
High90 °F (Jun 23, 6:00 PM)100% (Jun 18, 3:00 AM)30.29 "Hg (Jun 18, 3:00 AM)
Low48 °F (Jun 20, 6:00 AM)39% (Jun 24, 2:00 PM)29.57 "Hg (Jun 15, 5:00 PM)
Average64 °F77%30.03 "Hg
* Reported Jun 14 9:00 PM — Jun 29 9:00 PM, Grenchen, Weather by CustomWeather, © 2016

Note: Actual official high and low records may vary slightly from our data, if they occured in-between our weather recording intervals... More about our weather records

Advertising

Grenchen Weather History for the Previous 24 Hours

Scroll right to see more
 ConditionsComfort  
Time TempWeatherWind HumidityBarometerVisibility
9:00 PM
Wed, Jun 29
74 °FMild.3 mph64%29.89 "HgN/A
8:00 PM79 °FWarm.7 mph51%29.87 "HgN/A
7:00 PM79 °FWarm.7 mph52%29.85 "HgN/A
6:00 PM81 °FWarm.6 mph48%29.85 "HgN/A
5:00 PM82 °FWarm.6 mph43%29.86 "HgN/A
4:00 PM82 °FWarm.8 mph43%29.88 "HgN/A
3:00 PM81 °FWarm.10 mph44%29.89 "HgN/A
2:00 PM79 °FWarm.7 mph52%29.92 "HgN/A
1:00 PM76 °FMild.3 mph56%29.95 "HgN/A
12:00 PM74 °FMild.5 mph61%29.98 "HgN/A
11:00 AM71 °FMild.3 mph64%30.00 "HgN/A
10:00 AM70 °FMild.2 mph72%30.01 "HgN/A
9:00 AM68 °FMild.2 mph74%30.02 "HgN/A
8:00 AM65 °FMild.2 mph86%30.03 "HgN/A
7:00 AM64 °FMild.1 mph92%30.02 "HgN/A
6:00 AM63 °FMild.1 mph93%30.02 "HgN/A
5:00 AM63 °FMild.1 mph91%30.02 "HgN/A
3:00 AM64 °FMild.2 mph89%30.01 "HgN/A
2:00 AM64 °FMild.2 mph88%30.01 "HgN/A
1:00 AM64 °FMild.1 mph89%30.02 "HgN/A
12:00 AM66 °FMild.No wind83%30.01 "HgN/A
11:00 PM
Tue, Jun 28
67 °FMild.3 mph76%30.00 "HgN/A
10:00 PM68 °FMild.2 mph69%29.99 "HgN/A
Weather by CustomWeather, © 2016

See weather overviewHow to use our weather pages